Regional Weather Roundup
Issued by NWS State College, PA

Home | Current Version | Previous Version | Graphics & Text | Print | Product List | Glossary Off
Versions: 1 2 3 4 5 6 7 8 9 10 11 12 13 14 15 16 17 18 19 20 21 22 23 24 25 26 27 28 29 30 31 32 33 34 35 36 37 38 39 40 41 42 43 44 45 46 47 48 49 50

000
ASUS41 KCTP 260410
RWRCTP

REGIONAL WEATHER ROUNDUP
NATIONAL WEATHER SERVICE STATE COLLEGE PA
1200 AM EDT MON SEP 26 2016

Note: "fair" indicates few or no clouds below 12,000 feet with no
significant weather and/or obstructions to visibility.

* = STATION THAT DOES NOT REPORT PRECIPITATION /E.G. RAIN...SNOW...ETC/
    THUNDER OR FOG.

PAZ002>004-007>009-013>016-020>023-029>032-260500-
WESTERN PENNSYLVANIA

CITY           SKY/WX    TMP DP  RH WIND       PRES   REMARKS
ERIE           CLEAR     59  47  64 SE12      30.06F
MEADVILLE      CLEAR     58  43  57 E5        30.09F
FRANKLIN*        N/A     52  45  76 E5        30.12F
NEW CASTLE     FAIR      54  52  93 CALM      30.09F
BEAVER COUNTY  NOT AVBL
BUTLER*        CLOUDY    57  45  62 E9        30.12F
PITTSBURGH INT CLOUDY    62  47  57 S3        30.07F
PITTSBURGH     PTCLDY    61  45  55 SE6       30.08F
INDIANA*       CLEAR     57  46  67 E7        30.14F
LATROBE        PTCLDY    59  50  72 SE8       30.11S
WASHINGTON CO* CLEAR     52  48  87 CALM      30.08F
$$

PAZ004>006-010>012-017>019-024>028-033>037-041-042-045-046-049>053-260500-
CENTRAL PENNSYLVANIA

CITY           SKY/WX    TMP DP  RH WIND       PRES   REMARKS
BRADFORD       CLEAR     42  42 100 CALM      30.15F
DUBOIS         CLOUDY    52  41  66 E6        30.13F
CLEARFIELD     CLOUDY    47  45  93 N8        30.16F
JOHNSTOWN      CLEAR     56  46  69 SE5       30.15S
ALTOONA        CLEAR     56  44  64 CALM      30.17S
STATE COLLEGE  CLOUDY    54  42  63 CALM      30.16F
WILLIAMSPORT   CLOUDY    50  46  86 CALM      30.17S
SELINSGROVE    CLOUDY    48  47  96 CALM      30.18S
FT INDIANTOWN  CLOUDY    49  47  92 E1        30.18S
CAPITAL CITY   CLOUDY    54  47  77 CALM      30.18R
HARRISBURG     CLOUDY    57  51  80 E6        30.17S
YORK           CLEAR     56  49  77 S3        30.17F
$$

PAZ038>040-043-044-047-048-054-055-060>062-067>071-260500-
EASTERN PENNSYLVANIA

CITY           SKY/WX    TMP DP  RH WIND       PRES   REMARKS
SCRANTON       CLEAR     49  39  68 E7        30.19S
MOUNT POCONO   CLEAR     41  36  82 CALM      30.20S
ALLENTOWN      CLOUDY    49  42  77 N3        30.19S
QUAKERTOWN*    CLOUDY    46  43  87 CALM      30.19F
READING        CLOUDY    52  47  83 CALM      30.17F
LANCASTER      CLOUDY    54  48  80 CALM      30.18S
COATESVILLE    PTCLDY    52  46  82 CALM      30.20S
POTTSTOWN      PTCLDY    49  45  86 CALM      30.20S
BLUE BELL      PTCLDY    45  45 100 CALM      30.18S
DOYLESTOWN     CLOUDY    53  45  74 CALM      30.18S
WILLOW GROVE   NOT AVBL
NORTH PHILA    PTCLDY    55  47  74 NE5       30.19F
PHILADELPHIA   MOCLDY    61  51  70 CALM      30.18S
$$




USA.gov is the U.S. government's official web portal to all federal, state and local government web resources and services.